EW2546 Weather Reports


time (UTC)temp
F
wind
direction
speed
knots
gust
knots
rain 1hr
in
rain 24hr
in
rain mn
in
humidity
%
barometer
mb
20260504231539 63 0 0.0 1.7 0.00 0.00 0.00 48 1005.4
20260504231025 63 0 0.0 1.7 0.00 0.00 0.00 47 1005.5
20260504230526 65 0 0.0 0.9 0.00 0.00 0.00 46 1005.3
20260504230037 65 0 0.0 0.9 0.00 0.00 0.00 44 1005.2
20260504225525 66 0 0.0 4.3 0.00 0.00 0.00 40 1005.2
20260504225025 66 0 0.0 4.3 0.00 0.00 0.00 44 1005.2
20260504224543 66 0 0.0 5.2 0.00 0.00 0.00 39 1005.1
20260504224025 67 0 0.0 5.2 0.00 0.00 0.00 39 1005.0
20260504223525 67 0 0.0 3.5 0.00 0.00 0.00 42 1005.0
20260504223038 67 0 0.0 3.5 0.00 0.00 0.00 40 1005.0
20260504222528 67 0 0.0 2.6 0.00 0.00 0.00 38 1005.0
20260504222025 67 0 0.0 1.7 0.00 0.00 0.00 40 1005.0
20260504221537 67 0 0.0 0.0 0.00 0.00 0.00 39 1005.1
20260504221026 68 0 0.0 2.6 0.00 0.00 0.00 40 1005.1
20260504220524 68 0 0.0 2.6 0.00 0.00 0.00 38 1005.0
20260504220044 68 0 0.0 2.6 0.00 0.00 0.00 37 1005.0
20260504215525 69 0 0.0 4.3 0.00 0.00 0.00 35 1005.0
20260504215029 68 0 0.0 4.3 0.00 0.00 0.00 39 1005.0
20260504214545 68 0 0.0 4.3 0.00 0.00 0.00 36 1005.1
20260504214025 68 0 0.0 4.3 0.00 0.00 0.00 36 1005.2
20260504213529 68 237 0.0 5.2 0.00 0.00 0.00 36 1005.2
20260504213040 69 0 0.9 7.0 0.00 0.00 0.00 37 1005.1
20260504212525 69 0 0.0 7.0 0.00 0.00 0.00 37 1005.1
20260504212029 70 255 0.9 7.0 0.00 0.00 0.00 35 1005.0
20260504211537 70 0 0.0 6.1 0.00 0.00 0.00 36 1005.0
20260504211025 70 283 0.0 8.7 0.00 0.00 0.00 35 1005.0
20260504210525 69 0 0.9 8.7 0.00 0.00 0.00 36 1004.9
20260504210041 69 0 2.6 8.7 0.00 0.00 0.00 36 1005.0
20260504205525 69 0 3.5 7.8 0.00 0.00 0.00 36 1005.0
20260504205024 69 0 1.7 6.1 0.00 0.00 0.00 39 1004.9
20260504204540 69 0 0.9 6.1 0.00 0.00 0.00 37 1005.0
20260504204024 70 0 0.0 5.2 0.00 0.00 0.00 37 1005.0
20260504203527 70 0 0.9 9.6 0.00 0.00 0.00 38 1005.0
20260504203040 70 284 0.0 9.6 0.00 0.00 0.00 37 1005.0
20260504202525 70 289 1.7 7.8 0.00 0.00 0.00 39 1005.1
20260504202024 70 0 0.0 7.0 0.00 0.00 0.00 40 1005.1
20260504201536 69 243 0.9 7.0 0.00 0.00 0.00 37 1005.1
20260504201025 69 281 0.9 7.0 0.00 0.00 0.00 38 1005.2
20260504200525 69 258 0.9 5.2 0.00 0.00 0.00 38 1005.3
20260504200045 69 297 0.0 7.8 0.00 0.00 0.00 40 1005.3
20260504195524 68 0 0.9 7.8 0.00 0.00 0.00 40 1005.4
20260504195027 68 303 0.9 5.2 0.00 0.00 0.00 41 1005.3
20260504194535 66 0 0.0 1.7 0.00 0.00 0.00 48 1005.5
20260504194025 65 0 0.0 5.2 0.00 0.00 0.00 47 1005.5
20260504193525 65 0 0.0 6.1 0.00 0.00 0.00 47 1005.6
20260504193040 64 0 0.9 6.1 0.00 0.00 0.00 50 1005.6
20260504192524 64 0 0.0 5.2 0.00 0.00 0.00 49 1005.7
20260504192027 65 307 0.0 5.2 0.00 0.00 0.00 49 1005.7
20260504191548 66 295 0.0 4.3 0.00 0.00 0.00 48 1005.6
20260504191024 65 0 0.0 4.3 0.00 0.00 0.00 50 1005.5
20260504190527 65 0 0.9 5.2 0.00 0.00 0.00 50 1005.5
20260504190038 64 0 0.0 6.1 0.00 0.00 0.00 52 1005.5
20260504185525 63 309 0.0 6.1 0.00 0.00 0.00 55 1005.7
20260504185025 62 0 0.0 1.7 0.00 0.00 0.00 54 1005.8
20260504184538 61 0 0.0 1.7 0.00 0.00 0.00 56 1005.7
20260504184025 60 0 0.0 1.7 0.00 0.00 0.00 58 1005.8
20260504183525 59 0 0.0 2.6 0.00 0.00 0.00 60 1005.8
20260504183043 59 0 0.0 2.6 0.00 0.00 0.00 60 1005.9
20260504182525 59 0 0.0 3.5 0.00 0.00 0.00 59 1005.9
20260504182024 59 301 0.0 6.1 0.00 0.00 0.00 59 1005.9
20260504181539 59 0 0.9 7.0 0.00 0.00 0.00 58 1005.9
20260504181027 60 0 1.7 7.0 0.00 0.00 0.00 55 1005.9
20260504180527 60 0 0.0 4.3 0.00 0.00 0.00 54 1005.9
20260504180041 60 0 0.0 7.0 0.00 0.00 0.00 54 1005.8
20260504175528 60 257 0.0 7.0 0.00 0.00 0.00 54 1005.9
20260504175024 61 266 2.6 7.0 0.00 0.00 0.00 51 1005.8
20260504174540 61 298 0.9 7.0 0.00 0.00 0.00 46 1005.9
20260504174024 61 309 2.6 7.8 0.00 0.00 0.00 43 1005.8
20260504173524 62 0 0.0 8.7 0.00 0.00 0.00 45 1005.8
20260504173042 62 280 2.6 9.6 0.00 0.00 0.00 42 1005.9
20260504172524 62 186 0.9 10.4 0.00 0.00 0.00 41 1005.5
20260504172025 62 282 2.6 10.4 0.00 0.00 0.00 42 1005.6
20260504171536 62 232 1.7 10.4 0.00 0.00 0.00 42 1005.5
20260504171028 62 277 3.5 10.4 0.00 0.00 0.00 40 1005.4
20260504170531 63 295 2.6 8.7 0.00 0.00 0.00 42 1005.3
20260504151023 60 0 0.9 8.7 0.00 0.00 0.00 50 1006.0
20260504150523 60 222 0.0 7.0 0.00 0.00 0.00 49 1006.1
20260504141023 55 211 2.6 8.7 0.00 0.00 0.00 58 1007.0
20260504140523 55 232 1.7 8.7 0.00 0.00 0.00 60 1007.1
20260504130526 52 193 0.0 6.1 0.00 0.00 0.00 65 1008.2
20260504110525 33 0 0.0 0.0 0.00 0.00 0.00 93 1008.6
20260504100525 32 0 0.0 0.0 0.00 0.00 0.00 93 1008.3
20260504081542 28 0 0.0 0.0 0.00 0.00 0.00 92 1008.0
20260504081025 28 0 0.0 0.0 0.00 0.00 0.00 92 1008.0
20260504080525 28 0 0.0 0.0 0.00 0.00 0.00 92 1008.1
20260504050529 32 0 0.0 0.0 0.00 0.00 0.00 85 1007.9
20260504045525 33 0 0.0 0.0 0.00 0.00 0.00 85 1007.8
20260504045026 33 0 0.0 0.0 0.00 0.00 0.00 86 1007.8
20260504044536 33 0 0.0 0.0 0.00 0.00 0.00 85 1007.8
20260504044026 33 0 0.0 0.0 0.00 0.00 0.00 85 1007.9
20260504043526 33 0 0.0 0.0 0.00 0.00 0.00 85 1007.8
20260504043042 33 0 0.0 0.0 0.00 0.00 0.00 85 1007.9
20260504042526 33 0 0.0 0.0 0.00 0.00 0.00 84 1007.9
20260504042025 34 0 0.0 0.0 0.00 0.00 0.00 83 1007.9
20260504041541 34 0 0.0 0.0 0.00 0.00 0.00 84 1008.0
20260504041025 34 0 0.0 0.0 0.00 0.00 0.00 83 1007.8
20260504040525 35 0 0.0 0.0 0.00 0.00 0.00 82 1007.8
20260504040045 35 0 0.0 0.0 0.00 0.00 0.00 81 1007.8
20260504035529 35 0 0.0 0.0 0.00 0.01 0.00 81 1007.7
20260504035026 36 0 0.0 0.0 0.00 0.01 0.00 80 1007.7
20260504034541 36 0 0.0 0.0 0.00 0.01 0.00 79 1007.7
20260504034025 36 0 0.0 0.0 0.00 0.01 0.00 80 1007.7
20260504033526 37 0 0.0 0.0 0.00 0.01 0.00 79 1007.7
20260504033047 37 0 0.0 0.0 0.00 0.01 0.00 79 1007.6
20260504032525 37 0 0.0 0.0 0.00 0.01 0.00 78 1007.6
20260504032029 38 0 0.0 0.0 0.00 0.01 0.00 78 1007.6
20260504031535 38 0 0.0 0.0 0.00 0.01 0.00 79 1007.5
20260504031024 38 0 0.0 0.0 0.00 0.01 0.00 79 1007.5
20260504030525 39 0 0.0 0.0 0.00 0.01 0.00 78 1007.5
20260504030043 39 0 0.0 0.0 0.00 0.01 0.00 79 1007.5
20260504025526 39 0 0.0 0.0 0.00 0.01 0.00 79 1007.5
20260504025026 40 0 0.0 0.0 0.00 0.01 0.00 79 1007.5
20260504024545 40 0 0.0 0.0 0.00 0.01 0.00 78 1007.6
20260504024027 40 0 0.0 0.0 0.00 0.01 0.00 76 1007.6
20260504023525 41 0 0.0 0.0 0.00 0.01 0.00 74 1007.6
20260504023039 41 0 0.0 0.0 0.00 0.01 0.00 72 1007.6
20260504022525 41 0 0.0 0.0 0.00 0.01 0.00 70 1007.6
20260504022026 41 0 0.0 0.0 0.00 0.01 0.00 68 1007.5
20260504021548 41 0 0.0 0.0 0.00 0.01 0.00 67 1007.5
20260504021022 42 0 0.0 0.0 0.00 0.01 0.00 67 1007.5
20260504020525 42 0 0.0 2.6 0.00 0.01 0.00 66 1007.4
20260504020036 42 0 0.0 2.6 0.00 0.01 0.00 66 1007.5
20260504015525 42 0 0.0 2.6 0.00 0.05 0.00 66 1007.4
20260504015025 42 0 0.0 2.6 0.00 0.05 0.00 63 1007.4
20260504014536 42 0 0.0 2.6 0.00 0.05 0.00 66 1007.4
20260504014026 42 0 0.0 2.6 0.00 0.05 0.00 63 1007.4
20260504013525 43 0 0.0 3.5 0.00 0.05 0.00 64 1007.4
20260504013048 43 0 0.0 3.5 0.00 0.05 0.00 62 1007.3
20260504012526 43 0 0.0 3.5 0.00 0.05 0.00 62 1007.3
20260504012026 43 0 0.0 3.5 0.00 0.05 0.00 62 1007.2
20260504011541 43 0 0.0 3.5 0.00 0.05 0.00 60 1007.2
20260504011025 44 0 0.0 5.2 0.00 0.05 0.00 60 1007.1
20260504010527 44 0 0.0 5.2 0.00 0.05 0.00 60 1007.0
20260504010040 44 293 0.9 5.2 0.00 0.05 0.00 60 1007.0
20260504005525 44 0 0.0 6.1 0.00 0.07 0.00 59 1006.9
20260504005025 44 307 0.9 6.1 0.00 0.07 0.00 61 1006.9
20260504004546 44 260 0.0 6.1 0.00 0.07 0.00 59 1006.8
20260504004028 45 0 0.0 6.1 0.00 0.07 0.00 57 1006.6
20260504003525 45 290 0.9 5.2 0.00 0.07 0.00 56 1006.5
20260504003036 45 0 0.0 5.2 0.00 0.07 0.00 55 1006.4
20260504002525 45 245 0.0 3.5 0.00 0.07 0.00 55 1006.3
20260504002026 45 0 0.0 6.1 0.00 0.07 0.00 55 1006.2
20260504001537 46 0 0.9 7.8 0.00 0.07 0.00 54 1006.1
20260504001026 46 0 3.5 8.7 0.00 0.07 0.00 52 1005.9
20260504000524 46 318 1.7 8.7 0.00 0.07 0.00 54 1005.8
20260504000035 46 293 2.6 7.8 0.00 0.07 0.00 52 1005.7
20260503235525 47 311 2.6 7.8 0.00 0.08 0.00 50 1005.6
20260503235025 46 299 2.6 7.8 0.00 0.08 0.00 51 1005.6
20260503234541 47 273 0.0 7.0 0.00 0.08 0.00 53 1005.5
20260503234026 47 0 0.9 7.0 0.00 0.08 0.00 50 1005.4
20260503233526 47 303 1.7 7.0 0.00 0.08 0.00 51 1005.4
20260503233039 48 0 0.9 11.3 0.00 0.08 0.00 52 1005.3
20260503232525 48 0 3.5 11.3 0.00 0.08 0.00 46 1005.3
20260503232025 48 330 3.5 11.3 0.00 0.08 0.00 49 1005.1